Location: Raleigh
(35.7720°N, 78.6390°W)
Time: 11:51:34
(UTC-04:00)

JAS-2 - Visible Passes

Search period start: 30 September 2014 00:00
Search period end: 10 October 2014 00:00
Orbit: 800 x 1322 km, 98.5° (Epoch: 28 September)

Date Brightness Start Highest point End Pass type
(mag) Time Alt. Az. Time Alt. Az. Time Alt. Az.
30 Sep 12.9 05:23:12 10° ENE 05:26:12 13° E 05:29:18 10° ESE visible
01 Oct 11.7 06:10:29 10° NNE 06:16:41 35° E 06:23:24 10° SSE visible
01 Oct 12.8 19:55:03 10° WSW 19:56:10 11° W 19:57:16 10° WNW visible
02 Oct 12.9 05:18:43 10° ENE 05:21:20 12° E 05:24:01 10° ESE visible
03 Oct 11.8 06:05:39 10° NE 06:11:51 33° E 06:18:32 10° SSE visible
03 Oct 12.7 19:49:12 10° WSW 19:51:10 12° W 19:53:09 10° WNW visible
04 Oct 13.0 05:14:22 10° ENE 05:16:28 11° E 05:18:36 10° ESE visible
05 Oct 11.9 06:00:50 10° NE 06:07:02 31° E 06:13:38 10° SSE visible
05 Oct 12.5 19:43:38 10° WSW 19:46:10 14° W 19:48:46 10° WNW visible
06 Oct 13.1 05:10:18 10° E 05:11:35 11° E 05:12:53 10° E visible
07 Oct 12.0 05:56:02 10° NE 06:02:13 30° E 06:08:44 10° SSE visible
07 Oct 12.4 19:38:11 10° SW 19:41:10 15° W 19:44:15 10° NW visible
08 Oct 10.5 06:45:17 10° NNE 06:52:29 70° ESE 07:00:14 10° S visible
09 Oct 12.1 05:51:16 10° NE 05:57:23 28° E 06:03:48 10° SSE visible
09 Oct 12.4 19:32:49 10° SW 19:36:10 17° W 19:39:42 10° NW visible
